Location: Anjeux
(47.8815°N, 6.2076°E)
Time: 10:24:32
(UTC+00:00)

AO-27 - Pass Details

Date: 12 December 2021
Orbit: 784 x 798 km, 98.9° (Epoch: 24 January)

Event Time Altitude Azimuth Distance (km) Brightness Sun altitude
Rises 18:56:59 0° 194° (SSW) 3,288 11.0 -31.5°
Reaches altitude 10° 18:59:36 10° 206° (SSW) 2,365 10.4 -31.9°
Maximum altitude 19:04:06 29° 265° (W) 1,436 9.5 -32.7°
Drops below altitude 10° 19:08:38 10° 325° (NW) 2,381 10.5 -33.4°
Sets 19:11:17 0° 337° (NNW) 3,316 11.2 -33.9°
